Zurück zum Katalog

CZ-4 DEB

AktivSSO
NORAD 26347·DEBRIS·🇨🇳 China

Gestartet Oct 14, 1999 von Taiyuan Satellite Launch Center

Loading…

Nächste Überflüge (nächste 24 Stunden)

TLE

AktuellSource: Space-Track

Epoche: Sep 13, 2026, 09:59 UTC

1 26347U 99057JG  26256.41641539  .00001296  00000-0  28851-3 0  9991
2 26347  98.4355 323.5895 0054427 127.8073 232.8071 14.57793667394265

Verfolge CZ-4 DEB in Echtzeit mit AllMySat

Download on the App Store